sat.trackr.live / text

‹ back to catalog

STARLINK-3834

NORAD 52368 · 2022-045AP

PAYLOAD ACTIVE UNKNOWN

§ Identity

Operator
Country
US
Launch date
2022-04-29
Launch site
AFETR
Launch vehicle
Mass (kg)
RCS (m²)

Purposes: comms

External: N2YO · Heavens-Above · Gunter

§ Orbital elements

Epoch: 2026-09-19T23:24:18.232128Z

Period
93.85 min
Inclination
53.1593°
Eccentricity
0.0001050
Mean motion
15.34393630 rev/d
Perigee alt
462.0 km
Apogee alt
463.4 km
Semi-major
6,840.9 km
B*
1.4775e-5
RAAN
27.8270°
Arg perigee
72.5557°
Mean anomaly
287.5560°
Rev number
24,536

§ Raw data

STARLINK-38341 52368U 22045AP  26262.97521102  .00000123  00000+0  14775-4 0  99952 52368  53.1593  27.8270 0001050  72.5557 287.5560 15.34393630245365

JSON: /api/v1/satellites/52368 · /tle

For live sub-satellite position, see the globe view (requires WebGL).

§ Visibility from observer

Set your observer location to see the next 7 days of passes ≥ 10°. The values pass through the URL so the page stays shareable.

No JS? Fill the form by hand. The geolocation button needs JavaScript.